Theta_e
310 310 310 310 310 310 311 311 311 311 311 311 311 311 312 312 312 312 313 313 312 312 313 316 316 316 316 319 318 319 321 321 322 321 320 319 319 319 318 318 318 318 318 319 318
310 310 311 311 311 311 312 312 312 312 312 312 312 312 312 312 312 313 313 312 312 312 312 315 317 317 319 320 320 320 322 321 321 320 319 318 318 318 318 318 318 319 319 318 317
311 311 312 312 312 312 312 312 312 312 312 312 312 312 312 312 314 314 314 313 313 312 313 316 316 317 318 319 320 320 321 320 319 319 318 318 318 317 318 319 318 318 318 318 318
312 312 312 312 311 311 311 311 311 311 312 312 312 311 310 310 316 312 315 313 312 312 313 314 316 317 318 319 318 320 319 319 319 318 317 318 317 317 317 317 317 317 317 317 317
311 311 310 310 311 312 313 314 315 316 317 318 318 317 316 313 313 314 313 313 313 312 313 315 316 317 318 317 318 319 318 317 318 318 318 317 317 317 317 317 317 317 317 317 317
311 312 314 315 316 316 317 317 318 318 318 319 318 318 316 315 315 312 313 313 312 312 314 315 316 316 316 316 317 317 316 316 316 316 316 316 317 316 316 316 316 316 316 316 316
317 317 316 316 315 314 314 314 314 314 313 313 312 312 313 316 318 317 315 312 312 312 315 315 315 315 316 317 316 315 315 316 316 316 317 315 316 317 316 316 316 315 315 316 316
315 315 315 316 317 318 318 318 318 318 318 317 315 310 313 314 314 314 313 311 311 312 313 313 313 314 315 315 315 315 316 317 318 315 315 314 316 317 316 315 315 315 315 315 315
317 317 318 319 320 321 322 322 322 322 321 318 314 310 314 312 312 312 311 310 310 311 312 313 313 314 315 316 316 317 317 318 318 317 315 315 316 316 315 315 315 315 316 315 315
319 320 321 322 322 323 323 324 324 322 319 315 311 311 312 311 311 311 311 310 311 311 312 312 313 315 315 316 317 319 320 319 318 317 317 316 316 316 316 316 316 316 315 315 315
322 324 324 323 323 322 322 323 322 321 319 321 322 318 320 315 314 311 311 310 311 312 314 313 315 315 317 317 317 317 316 317 317 317 317 317 317 316 315 315 316 316 316 315 315
324 323 322 322 323 323 323 322 323 322 321 321 322 321 318 316 315 313 311 312 312 314 314 314 315 316 316 316 314 315 316 316 317 317 317 316 315 315 315 316 316 316 315 315 313
324 323 322 323 323 322 323 322 322 320 319 321 317 316 313 314 318 318 312 313 314 316 314 316 318 317 314 315 315 316 316 316 316 316 314 315 315 317 318 319 316 313 313 312 310
322 323 322 323 322 323 321 322 320 318 322 322 314 310 308 310 312 309 310 311 313 316 316 317 313 312 313 314 314 315 315 314 314 314 315 313 316 317 319 319 314 312 310 309 307
324 322 322 321 322 323 322 321 320 317 328 316 310 309 308 310 310 309 309 310 313 314 313 315 312 312 313 313 314 314 312 312 312 313 314 315 316 319 320 317 313 311 309 306 305
322 321 321 320 320 320 320 320 318 323 327 321 311 312 311 309 309 309 310 309 310 311 312 313 310 311 314 312 312 311 311 313 314 314 319 319 320 320 317 314 312 309 307 305 304
320 319 319 318 320 319 320 320 324 324 322 322 315 312 314 313 311 311 313 313 317 319 320 317 316 318 311 313 312 310 313 321 323 321 322 316 321 318 316 312 311 308 306 304 303
318 317 317 315 315 318 318 322 323 320 320 321 319 317 321 318 319 316 317 319 318 317 319 318 317 316 311 313 315 314 316 321 325 323 323 319 320 320 313 309 308 307 305 303 302
315 314 313 312 312 316 319 323 320 318 318 319 320 320 320 320 319 319 319 319 317 317 318 317 317 312 309 310 311 315 315 315 321 319 319 317 317 317 310 309 308 307 305 302 300
310 309 309 311 309 313 317 317 316 315 317 318 319 317 317 318 317 316 316 314 313 309 310 315 318 317 313 308 309 309 309 315 315 319 319 316 316 317 313 311 309 306 303 301 299
307 306 307 307 307 313 314 312 311 311 313 316 316 316 314 314 315 315 316 316 316 314 311 315 315 316 313 313 314 312 311 310 311 315 318 318 316 315 312 310 308 303 300 299 298
304 307 303 307 310 310 312 310 309 311 312 312 314 314 314 313 313 313 314 313 314 311 313 313 314 315 314 312 312 313 313 313 314 314 314 315 315 315 307 306 302 301 299 297 295
302 305 304 309 311 312 310 310 310 311 311 311 313 313 312 312 312 310 310 311 312 312 313 312 313 314 312 308 311 313 312 312 313 313 316 318 317 310 308 303 299 299 296 295 294
302 305 306 307 309 309 309 309 310 309 309 309 310 309 310 310 309 309 309 311 310 310 307 309 311 312 313 308 310 311 310 311 311 312 311 311 311 309 308 308 306 299 296 294 294
300 302 304 307 307 308 307 306 307 308 307 307 307 307 307 307 307 308 308 308 307 303 306 307 308 307 308 308 307 307 306 307 307 307 308 307 307 306 305 302 297 294 292 293 293
299 300 300 304 305 307 307 307 306 305 305 305 307 307 307 308 308 307 306 305 305 303 303 302 303 304 303 303 303 304 303 304 304 304 303 303 304 304 299 296 296 295 293 291 291
294 295 299 300 302 304 306 306 305 304 302 301 303 303 303 303 302 301 300 300 301 301 301 300 300 301 301 300 300 300 300 300 301 301 301 301 300 296 295 294 293 292 292 291 291
Wind_Speed
4 4 5 5 5 6 7 7 7 8 8 9 10 11 12 13 15 17 17 12 12 10 10 8 7 5 4 5 4 2 5 8 10 8 4 3 6 4 5 12 13 10 15 13 18
6 7 7 7 7 8 9 9 10 11 11 11 13 14 14 16 19 21 13 10 6 6 10 9 8 7 6 4 4 7 8 10 7 10 9 11 10 14 13 16 20 19 21 16 21
8 9 9 10 11 11 11 12 12 13 13 13 14 15 16 16 17 3 1 2 2 2 7 9 7 8 10 8 7 6 10 13 14 15 17 15 17 18 16 18 21 19 12 16 16
12 11 11 12 12 13 13 13 14 14 15 15 15 15 15 13 6 3 3 6 8 6 10 10 8 7 7 9 10 10 16 19 20 13 9 16 22 17 17 30 26 27 26 24 22
13 13 13 13 13 13 14 15 15 15 15 15 15 16 15 6 11 18 18 18 15 10 12 10 11 11 11 9 10 15 17 20 19 18 19 21 26 22 27 29 32 29 26 24 23
12 11 11 12 12 13 14 15 16 16 17 16 15 15 13 13 13 13 9 9 9 9 12 13 6 11 15 15 13 13 14 21 25 24 20 19 24 19 35 23 24 21 22 21 21
11 11 10 10 10 11 12 14 15 15 15 15 14 14 15 18 17 15 16 12 12 11 11 12 11 8 6 10 10 12 13 17 26 26 14 7 15 14 23 15 19 21 21 22 20
8 8 7 7 8 10 12 14 14 15 14 13 12 10 10 14 14 13 15 18 13 13 14 13 12 10 12 10 8 10 15 15 12 2 3 8 16 16 11 12 17 24 31 30 29
7 6 5 6 7 9 12 14 16 16 15 12 8 6 7 8 7 9 9 8 9 12 14 12 8 11 10 10 13 14 16 19 15 14 2 11 13 12 26 27 29 37 34 30 29
7 6 6 6 8 10 12 13 14 11 8 5 2 4 6 4 7 7 6 5 4 6 4 6 8 8 10 12 14 18 20 20 15 14 15 18 23 20 26 31 33 33 29 26 21
8 8 8 9 10 11 10 9 6 6 3 6 9 13 17 14 13 9 4 5 5 8 6 10 8 10 15 16 20 22 22 24 22 20 23 24 24 20 24 33 33 27 17 8 7
11 10 12 13 10 8 6 2 4 5 11 15 20 21 17 17 7 7 4 7 6 9 6 3 12 15 16 16 13 18 22 23 21 18 16 20 23 25 23 24 19 15 12 2 12
15 13 13 10 8 7 1 3 4 7 7 6 7 5 3 4 6 6 6 4 9 12 10 16 16 15 10 13 17 20 18 21 24 18 18 18 19 10 10 22 5 11 14 18 18
16 14 8 6 8 3 3 4 6 11 5 4 2 1 1 3 2 2 7 3 3 6 7 11 6 5 10 12 16 18 16 14 15 12 9 7 9 16 18 13 15 25 19 17 18
15 11 10 9 6 3 5 3 7 5 6 2 3 2 3 2 5 1 6 5 5 4 3 1 1 3 7 10 11 13 6 10 10 11 16 13 9 6 13 5 14 17 16 16 18
14 13 12 10 9 10 6 4 5 4 7 2 3 3 3 4 3 5 3 4 2 4 8 12 5 4 7 7 8 8 9 14 16 8 8 12 11 5 5 10 9 16 15 14 15
13 10 8 7 5 6 5 2 4 6 3 4 1 3 3 4 4 6 6 7 7 7 10 6 13 13 7 9 8 7 8 6 5 6 7 4 7 9 8 8 10 11 12 12 13
10 8 9 9 8 7 6 3 8 3 9 5 2 3 4 3 5 4 6 13 9 8 7 8 11 5 9 10 5 7 4 4 6 10 15 14 8 8 10 14 14 12 12 11 12
12 12 11 10 9 9 7 7 6 9 11 6 5 8 15 10 5 5 11 13 5 7 7 5 5 3 5 1 2 3 6 5 2 3 5 9 17 16 13 11 12 11 8 8 7
11 10 15 14 13 9 6 9 9 8 2 7 11 9 11 8 8 5 8 3 3 3 5 2 7 5 2 1 7 3 4 3 4 5 11 14 19 14 13 12 9 8 6 7 9
11 4 9 19 16 8 8 8 10 13 8 7 11 15 14 13 10 12 6 3 4 5 3 3 4 5 4 7 12 6 6 5 5 8 11 15 13 9 10 8 4 5 7 9 10
9 4 9 18 10 8 11 6 5 7 8 11 6 13 14 9 9 15 16 13 5 5 4 9 4 8 21 21 20 16 18 17 12 13 10 14 18 8 13 5 4 3 4 3 4
8 7 13 25 8 11 10 9 13 8 8 6 7 9 7 10 6 11 13 2 4 2 2 3 2 4 9 12 5 3 5 7 9 4 13 14 7 9 8 5 2 6 4 3 3
8 5 8 18 15 10 15 13 13 8 11 13 8 9 11 12 11 7 6 3 4 3 3 3 4 11 14 18 18 15 14 11 7 5 13 14 20 28 24 17 16 12 6 4 3
7 5 7 7 11 14 10 4 11 10 11 6 7 17 13 9 12 16 15 8 3 1 2 3 9 13 17 18 17 17 17 24 24 23 20 24 24 23 20 12 2 3 2 5 7
4 4 3 2 13 18 15 12 15 10 6 9 12 7 7 6 8 3 4 4 9 5 3 2 9 9 14 16 18 20 24 24 23 24 25 24 26 22 7 4 4 5 5 7 8
10 6 3 5 7 8 13 16 11 12 6 8 6 5 6 9 4 1 4 6 8 5 7 4 5 5 15 14 15 12 20 22 23 25 24 22 13 6 3 3 7 9 11 13 13
Wind_Direction
300 308 314 320 322 324 324 322 321 319 319 319 318 318 318 316 314 308 297 280 280 262 239 226 226 224 208 237 221 239 254 264 273 266 281 170 266 190 272 276 267 252 267 300 284
291 300 305 308 310 311 312 312 312 312 313 313 313 313 315 318 319 309 295 276 270 249 230 225 209 207 226 235 223 226 247 274 279 284 279 295 272 288 284 273 273 268 265 271 279
284 291 298 303 306 307 308 308 307 307 308 308 308 309 312 321 327 273 207 70 62 198 213 212 229 215 249 254 229 227 251 275 290 282 288 283 285 279 261 271 272 282 288 286 281
285 289 292 294 298 301 303 303 303 304 305 306 307 306 309 313 301 303 267 287 295 282 227 213 202 221 251 238 261 264 256 271 283 289 283 273 287 277 265 266 281 283 286 285 277
284 290 294 297 299 301 300 299 300 301 300 301 301 301 306 278 259 276 278 279 279 267 221 212 226 240 257 270 280 248 273 278 281 278 270 278 271 274 273 278 282 283 282 277 270
280 283 288 294 301 303 303 302 303 303 301 299 296 293 289 264 265 280 279 272 258 238 224 214 223 250 283 275 260 303 290 282 278 274 268 268 274 282 275 276 284 285 285 281 274
272 279 286 292 299 305 306 307 308 306 304 299 291 282 269 262 266 263 269 263 250 235 228 228 233 231 308 263 271 279 292 294 282 271 256 256 271 244 274 276 277 287 289 290 283
267 274 285 297 309 318 317 317 315 312 308 302 290 272 257 263 264 268 265 263 256 243 230 232 236 250 246 274 263 272 271 275 286 63 185 191 276 292 321 313 285 281 287 287 284
260 268 279 294 309 319 319 322 322 316 308 300 281 231 263 283 287 285 267 247 252 240 233 243 232 236 235 245 274 247 269 279 294 302 31 212 281 293 305 295 286 281 286 291 292
245 253 266 287 303 315 319 325 321 310 297 310 275 239 255 300 308 300 289 216 194 181 168 188 203 230 237 249 253 282 289 298 284 286 279 273 276 293 295 294 280 281 290 293 296
244 256 273 286 305 318 323 344 320 289 298 249 271 271 298 284 287 282 250 177 155 193 215 194 223 222 249 255 263 280 286 285 288 292 290 288 294 297 287 280 283 288 305 304 40
240 268 291 294 305 319 345 342 317 302 295 274 263 255 250 256 280 282 181 191 205 239 198 194 245 258 275 276 288 279 280 283 285 292 306 298 291 291 286 276 284 294 310 86 102
246 261 282 292 295 318 355 343 335 330 263 271 247 241 233 233 247 246 198 245 231 254 230 257 274 298 287 266 269 267 276 287 296 311 299 292 286 256 278 298 18 39 90 90 76
250 255 250 279 310 258 277 315 339 341 273 155 173 156 106 157 183 261 195 213 218 294 289 267 339 306 282 267 269 282 298 313 307 311 295 19 292 297 274 266 80 96 75 79 73
228 244 253 266 245 256 249 292 329 323 287 68 126 179 160 229 125 18 168 159 237 240 246 38 68 319 274 275 287 282 338 311 298 279 285 271 251 291 285 183 114 92 75 65 60
243 257 262 246 240 246 241 281 308 233 246 164 125 164 196 183 189 144 209 215 207 234 217 251 190 229 246 291 251 314 287 276 262 270 263 277 252 282 48 108 115 98 83 64 50
236 234 222 231 219 210 197 190 243 233 132 160 165 182 264 182 201 214 190 199 261 284 264 236 241 264 213 266 205 222 272 307 281 212 269 60 333 264 343 84 120 111 91 75 67
221 223 232 226 216 186 180 194 234 264 244 110 159 173 248 165 241 226 275 267 269 240 286 278 291 206 164 221 315 193 253 221 278 288 294 319 262 252 128 119 114 112 100 80 60
226 229 228 222 220 191 196 219 227 225 240 248 219 269 258 237 242 285 257 279 322 211 246 287 244 98 211 340 271 161 223 276 216 220 269 250 267 266 140 142 135 120 97 71 61
232 236 240 226 216 185 228 244 242 245 245 249 239 244 261 220 223 230 273 76 174 239 222 56 287 260 276 219 225 244 359 203 168 256 260 262 279 270 208 178 154 121 72 33 22
235 233 235 214 194 185 226 237 258 248 244 241 251 261 266 266 262 257 250 192 217 195 244 171 201 250 276 219 253 232 248 228 289 247 259 271 269 304 67 116 130 56 29 12 10
204 226 212 172 175 203 222 218 229 212 207 245 277 261 258 262 271 255 252 254 106 137 219 197 251 256 269 286 281 274 268 266 255 250 227 251 251 283 25 89 58 2 348 5 18
187 192 181 172 215 218 228 228 232 198 211 198 235 233 245 247 253 247 252 336 8 284 341 34 236 286 288 285 53 30 350 321 298 275 248 261 270 32 11 5 348 330 287 305 348
175 173 176 210 237 241 221 233 219 214 236 233 242 256 249 247 242 254 247 104 59 93 105 110 238 242 264 275 303 297 306 272 241 266 291 278 286 293 287 279 257 280 244 245 256
202 199 176 201 222 223 228 240 223 214 215 220 248 238 235 241 249 254 257 260 208 107 171 247 256 265 269 278 290 291 283 272 270 270 267 279 282 283 298 324 13 192 242 265 265
221 180 187 203 209 213 218 229 226 197 196 215 236 172 175 238 236 339 13 232 255 233 234 198 261 286 274 273 269 268 266 268 274 275 273 273 271 275 338 327 299 313 325 326 310
213 188 182 168 189 201 215 227 235 240 201 245 269 236 244 255 280 315 260 275 263 246 253 240 252 258 264 280 298 277 255 261 261 266 269 275 302 31 42 325 327 326 318 314 315